Faro, Portugal

6:50 AM WEST on June 20, 2018 (GMT +0100)
Faro

Weather History for LPFR - June, 2018

Change the Weather History Date:

Thursday, June 14, 2018

  Actual Average Record
Temperature  
Mean Temperature 70 °F -  
Max Temperature 80 °F 80 °F 91 °F (2001)
Min Temperature 61 °F 64 °F 60 °F (2005)
Cooling Degree Days 6    
Growing Degree Days 20 (Base 50)    
Moisture  
Dew Point 56 °F    
Average Humidity 54    
Maximum Humidity 77    
Minimum Humidity 38    
Precipitation  
Precipitation 0.00 in 0.01 in - ()
Sea Level Pressure  
Sea Level Pressure 29.98 in    
Wind  
Wind Speed 5 mph ()    
Max Wind Speed 17 mph    
Max Gust Speed -    
Visibility 11.9 miles    
Events      
Averages and records for this station are not official NWS values.
T = Trace of Precipitation, MM = Missing Value Source: Averaged Metar Reports

Daily Weather History Graph

Daily Weather History Graph

Search for Another Location

Airport or City:

Astronomy

Jun. 14, 2018 Rise Set
Actual Time 6:11 AM WEST 8:52 PM WEST
Civil Twilight 5:40 AM WEST 9:23 PM WEST
Nautical Twilight 5:02 AM WEST 10:02 PM WEST
Astronomical Twilight 4:19 AM WEST 10:45 PM WEST
Moon 6:54 AM WEST (6/14) 9:40 PM WEST (6/14)
Length of Visible Light 15h 42m
Length of Day
14h 41m
New Moon, 1% of the Moon is Illuminated
Jun 14
New Moon
Jun 20
First Quarter
Jun 28
Full
Jul 6
Last Quarter
Jul 13
New

Hourly Weather History & Observations

Time (WEST) Temp. Heat Index Dew Point Humidity Pressure Visibility Wind Dir Wind Speed Gust Speed Precip Events Conditions
12:00 AM 72 °F - 59 °F 54% 30.04 in - NNW 4.5 mph - -  
12:00 AM 69.8 °F - 59.0 °F 68% 30.01 in - Variable 1.2 mph - N/A   Clear
12:30 AM 69.8 °F - 59.0 °F 68% 30.01 in - SW 3.5 mph - N/A   Clear
1:00 AM 72 °F - 54 °F 44% 30.03 in 12 mi NNW 4.5 mph - -   Clear
1:00 AM 68.0 °F - 59.0 °F 73% 30.01 in - NNW 5.8 mph - N/A   Clear
1:30 AM 69.8 °F - 55.4 °F 60% 30.01 in - North 6.9 mph - N/A   Clear
2:00 AM 71 °F - 53 °F 43% 30.02 in - North 2.2 mph - -  
2:00 AM 71.6 °F - 53.6 °F 53% 29.98 in - Variable 2.3 mph - N/A   Clear
2:30 AM 71.6 °F - 51.8 °F 50% 29.98 in - Variable 3.5 mph - N/A   Clear
3:00 AM 71.6 °F - 51.8 °F 50% 29.98 in - Variable 1.2 mph - N/A   Clear
3:30 AM 71.6 °F - 50.0 °F 46% 29.98 in - Variable 2.3 mph - N/A   Clear
4:00 AM 69 °F - 51 °F 41% 30.00 in 12 mi North 2.2 mph - -   Clear
4:00 AM 68.0 °F - 51.8 °F 56% 29.98 in - NNE 5.8 mph - N/A   Clear
4:30 AM 68.0 °F - 50.0 °F 52% 29.98 in - North 5.8 mph - N/A   Clear
5:00 AM 68 °F - 50 °F 42% 29.99 in - NNE 2.2 mph - -  
5:00 AM 68.0 °F - 48.2 °F 49% 29.98 in - North 5.8 mph - N/A   Clear
5:30 AM 66.2 °F - 50.0 °F 56% 29.98 in - NE 3.5 mph - N/A   Clear
6:00 AM 64.4 °F - 50.0 °F 59% 29.98 in - NE 4.6 mph - N/A   Clear
6:30 AM 62.6 °F - 55.4 °F 77% 29.98 in - Variable 2.3 mph - N/A   Clear
7:00 AM 64 °F - 53 °F 59% 30.00 in 12 mi NW 2.2 mph - -   Clear
7:00 AM 64.4 °F - 53.6 °F 68% 29.98 in - Variable 2.3 mph - N/A   Clear
7:30 AM 66.2 °F - 53.6 °F 64% 29.98 in - WNW 3.5 mph - N/A   Clear
8:00 AM 68 °F - 53 °F 49% 30.01 in - North 2.2 mph - -  
8:00 AM 66.2 °F - 53.6 °F 64% 29.98 in - Variable 2.3 mph - N/A   Clear
8:30 AM 69.8 °F - 51.8 °F 53% 29.98 in - SW 3.5 mph - N/A   Clear
9:00 AM 73.4 °F - 48.2 °F 41% 29.98 in - Variable 2.3 mph - N/A   Clear
9:30 AM 73.4 °F - 51.8 °F 47% 30.01 in - SE 3.5 mph - N/A   Clear
10:00 AM 74 °F - 54 °F 39% 30.01 in 12 mi North 4.5 mph - -   Clear
10:00 AM 73.4 °F - 53.6 °F 50% 30.01 in - South 4.6 mph - N/A   Clear
10:30 AM 73.4 °F - 53.6 °F 50% 29.98 in - SSW 5.8 mph - N/A   Clear
11:00 AM 74 °F - 55 °F 41% 30.03 in - SW 6.7 mph - -  
11:00 AM 73.4 °F - 53.6 °F 50% 30.01 in - SW 8.1 mph - N/A   Clear
11:30 AM 75.2 °F - 55.4 °F 50% 30.01 in - SW 8.1 mph - N/A   Clear
12:00 PM 76 °F - 55 °F 38% 30.02 in - SSW 8.9 mph - -  
12:00 PM 73.4 °F - 55.4 °F 53% 30.01 in - SSW 8.1 mph - N/A   Clear
12:30 PM 75.2 °F - 53.6 °F 47% 30.01 in - SW 8.1 mph - N/A   Clear
1:00 PM 75 °F - 56 °F 41% 30.02 in - SW 8.9 mph - -  
1:00 PM 73.4 °F - 53.6 °F 50% 30.01 in - SSW 8.1 mph - N/A   Clear
1:30 PM 73.4 °F - 55.4 °F 53% 30.01 in - SW 8.1 mph - N/A   Clear
2:00 PM 74 °F - 58 °F 49% 30.01 in - WSW 8.9 mph - -  
2:00 PM 73.4 °F - 60.8 °F 65% 29.98 in - SW 9.2 mph - N/A   Clear
2:30 PM 71.6 °F - 60.8 °F 69% 29.98 in - WSW 9.2 mph - N/A   Clear
3:00 PM 74 °F - 59 °F 51% 29.99 in - WSW 8.9 mph - -  
3:00 PM 71.6 °F - 59.0 °F 64% 29.98 in - WSW 10.4 mph - N/A   Clear
4:00 PM 75 °F - 59 °F 49% 29.98 in 12 mi West 11.2 mph - -   Clear
4:00 PM 75.2 °F - 59.0 °F 57% 29.95 in - WSW 10.4 mph - N/A   Clear
4:30 PM 75.2 °F - 60.8 °F 61% 29.95 in - WSW 10.4 mph - N/A   Clear
5:00 PM 75.2 °F - 60.8 °F 61% 29.95 in - WSW 11.5 mph - N/A   Clear
5:30 PM 75.2 °F - 60.8 °F 61% 29.95 in - West 12.7 mph - N/A   Clear
6:00 PM 75.2 °F - 60.8 °F 61% 29.95 in - West 10.4 mph - N/A   Clear
6:30 PM 75.2 °F - 60.8 °F 61% 29.95 in - West 11.5 mph - N/A   Clear
7:00 PM 73 °F - 61 °F 57% 29.95 in 11 mi West 11.2 mph - -   Clear
7:00 PM 73.4 °F - 60.8 °F 65% 29.92 in - West 10.4 mph - N/A   Clear
7:30 PM 71.6 °F - 60.8 °F 69% 29.92 in - West 9.2 mph - N/A   Clear
8:00 PM 74 °F - 62 °F 59% 29.94 in - West 4.5 mph - -  
8:00 PM 73.4 °F - 62.6 °F 69% 29.92 in - West 6.9 mph - N/A   Clear
8:30 PM 80.6 °F 81.1 °F 59.0 °F 48% 29.92 in - NW 10.4 mph - N/A   Clear
9:00 PM 80 °F - 59 °F 39% 29.95 in - NW 11.2 mph - -  
9:00 PM 80.6 °F 81.1 °F 59.0 °F 48% 29.92 in - NW 16.1 mph - N/A   Clear
9:30 PM 78.8 °F - 59.0 °F 51% 29.92 in - NW 16.1 mph - N/A   Clear
10:00 PM 77 °F - 59 °F 44% 29.96 in 12 mi NW 8.9 mph - -   Clear
10:00 PM 77.0 °F - 59.0 °F 54% 29.95 in - NW 13.8 mph - N/A   Clear
10:30 PM 77.0 °F - 59.0 °F 54% 29.95 in - NW 13.8 mph - N/A   Clear
11:00 PM 77 °F - 58 °F 41% 29.98 in - NNW 11.2 mph - -  
11:00 PM 77.0 °F - 57.2 °F 50% 29.95 in - NNW 12.7 mph - N/A   Clear
11:30 PM 77.0 °F - 57.2 °F 50% 29.95 in - NNW 17.3 mph - N/A   Clear